ATLAS 5 CENTAUR DEB, 49352

Orbit data source: Space-Track

ATLAS 5 CENTAUR DEB, 49352 is space debris in HEO originally from a launch on Wed, 17 Oct 2018 UTC launched from the Air Force Eastern Test Range (AFETR). Debris objects in space refer to the collection of defunct objects orbiting the Earth. Examples of debris include non-operational satellites, rocket bodies, and fragments generated from explosions, collisions, or faulty payload assembly.

Loading next visibility...
Identifier
49352, 2018-079FD
Orbit
HEO
Country
Flag of USUS
Related business
Flag of USUnited Launch Alliance/Lockheed Martin (US)
Manufacturer
ULA Decatur
Mission
Spacecraft
Bus & Motor
Unknown
Mass
Unknown
Launch date (UTC)
2018-10-17 (8 years ago)
Launch vehicle
Unknown
Launch site
Air Force Eastern Test Range (AFETR)
Object type
Payload
Rocket body
Debris
Shape & HBR
Unknown shape, 1.1 m
Radar Cross Section
Medium (>0.1 m² and <1 m²)

Expand to show TLE details & history
Last TLE update: 5 days ago

TLE from 5 days ago
0 ATLAS 5 CENTAUR DEB
1 49352U 18079FD  26122.94998728 -.00000078  00000-0  00000-0 0  9993
2 49352  12.3887  82.3887 4590092 221.2753  93.0091  1.68333172 28759
Epoch: 2026-05-02T22:47Z
TLE epoch observation values (Epoch: 2026-05-02T22:47:58.900Z)
Latitude
-0.00002°
Longitude
-120.57161°
Altitude
29,581.899 km
Speed
2.969 km/s
True Right ascension
05h 29m 08s
True Declination
0° 00' 00"
Sunlit
Object was in daylight at epoch
Visualization orbit readout
Latitude
Unknown
Longitude
Unknown
Altitude
Unknown
Speed
Unknown
Apparent Right ascension
Unknown
Apparent Declination
Unknown
Sunlit
N/A
Visualization observer readout
Local Sidereal Time
12:53:07
Azimuth
Unknown
Elevation
Unknown
Doppler factor
Unknown
Orbital elements
Apogee altitude
37,177.279 km
Perigee altitude
9,771.918 km
Semi-major axis
29,852.736 km
Eccentricity
0.45901
Inclination
12.3887°
RAAN
82.3887°
Arg. of periapsis
221.2753°
True anomaly
138.73325°
Mean anomaly
93.0091°
Eccentric anomaly
116.53754°
Mean motion
0.42079 °/min
Orbital period
855.53 mins
BSTAR
0
Loading maneuver chart data...
Computing Atmospheric mass density...

Documentation

Showing up to 5 results
|